DLH519 MROC-EDDF

Flight info

Callsign DLH519
Flight time N/A
Altitude 37000
Route NANJO3C COLOR UP798 SPP DCT COLBY/N0467F380 UM594 GABUN/N0469F370 UM594 ALBBE/N0466F390 DCT GOVET DCT GTK DCT NETTA DCT EYSEL DCT CERDA DCT MNDEZ DCT MLLER/M081F390 DCT AYTTE DCT 33N050W 39N040W 45N030W/M081F410 48N020W DCT BEDRA DCT NASBA DCT GAPLI/N0463F410 DCT SIDDI DCT DAWLY DCT GIBSO L620 SAM M140 DVR UL9 KONAN UL607 SPI T180 NIVNU T847 IMCOM IMCOM1D
Aircraft A346/H-SDE2E3FGHIJ3J4J5M1RWXY/LB1D1

Departure

Time 2026-04-30 18:19
Airport Juan Santamaría International Airport (MROC)

Arrival

Time N/A
Airport Frankfurt Main Airport (EDDF)
Time Latitude Longitude Altitude Speed Heading
2026-04-30 17:39 9.99705 -84.20410 3042 ft 0 kts 340°
2026-04-30 18:05 9.99674 -84.20393 3056 ft 4 kts 323°
2026-04-30 18:06 9.99658 -84.20381 3060 ft 0 kts 323°
2026-04-30 18:12 9.99665 -84.20400 3044 ft 2 kts 260°
2026-04-30 18:13 9.99636 -84.20488 3044 ft 9 kts 249°
2026-04-30 18:13 9.99528 -84.20776 3044 ft 15 kts 249°
2026-04-30 18:14 9.99437 -84.21018 3030 ft 26 kts 248°
2026-04-30 18:15 9.99181 -84.21702 2978 ft 39 kts 249°
2026-04-30 18:15 9.99080 -84.22126 2954 ft 17 kts 252°
2026-04-30 18:16 9.98935 -84.22163 2945 ft 0 kts 90°
2026-04-30 18:16 9.98931 -84.22156 2942 ft 0 kts 128°
2026-04-30 18:17 9.98928 -84.22117 2944 ft 3 kts 69°
2026-04-30 18:17 9.98928 -84.22116 2944 ft 0 kts 69°
2026-04-30 18:18 9.98929 -84.22115 2944 ft 0 kts 69°
2026-04-30 18:18 9.98979 -84.21981 2967 ft 46 kts 69°
2026-04-30 18:18 9.99154 -84.21517 2992 ft 94 kts 69°
2026-04-30 18:19 9.99439 -84.20756 3038 ft 136 kts 69°
2026-04-30 18:19 9.99821 -84.19733 3055 ft 172 kts 70°
2026-04-30 18:19 10.00218 -84.18540 3451 ft 175 kts 74°
2026-04-30 18:19 10.00667 -84.17402 4098 ft 177 kts 53°
2026-04-30 18:20 10.01679 -84.16696 4507 ft 191 kts
2026-04-30 18:20 10.02937 -84.17223 4788 ft 208 kts 319°
2026-04-30 18:20 10.03788 -84.18452 4956 ft 219 kts 303°
2026-04-30 18:20 10.04558 -84.19825 5113 ft 227 kts 304°
2026-04-30 18:21 10.05341 -84.21227 5272 ft 236 kts 299°
2026-04-30 18:21 10.06005 -84.22800 5434 ft 249 kts 293°
2026-04-30 18:21 10.06608 -84.24488 5592 ft 259 kts 291°
2026-04-30 18:21 10.07231 -84.26256 5852 ft 272 kts 292°
2026-04-30 18:22 10.07894 -84.28094 6099 ft 282 kts 292°
2026-04-30 18:22 10.09327 -84.31896 6939 ft 292 kts 301°
2026-04-30 18:22 10.10667 -84.33396 7329 ft 288 kts 332°
2026-04-30 18:23 10.12533 -84.34042 7808 ft 284 kts 359°
2026-04-30 18:23 10.14468 -84.33755 8258 ft 283 kts 24°
2026-04-30 18:23 10.16273 -84.32950 8755 ft 285 kts 27°
2026-04-30 18:23 10.18100 -84.32111 9138 ft 291 kts 26°
2026-04-30 18:24 10.21858 -84.30423 10113 ft 299 kts 26°
2026-04-30 18:24 10.23796 -84.29566 10321 ft 310 kts 26°
2026-04-30 18:24 10.25806 -84.28678 10531 ft 321 kts 27°
2026-04-30 18:25 10.27727 -84.27482 10736 ft 329 kts 41°
2026-04-30 18:25 10.30726 -84.23840 11118 ft 347 kts 57°
2026-04-30 18:25 10.32110 -84.21787 11317 ft 358 kts 57°
2026-04-30 18:26 10.35009 -84.17486 11725 ft 379 kts 58°
2026-04-30 18:26 10.36516 -84.15263 12056 ft 385 kts 57°
2026-04-30 18:26 10.38049 -84.13010 12470 ft 388 kts 57°
2026-04-30 18:27 10.41149 -84.08466 13350 ft 395 kts 57°
2026-04-30 18:27 10.42720 -84.06159 13773 ft 398 kts 57°
2026-04-30 18:28 10.45897 -84.01498 14475 ft 404 kts 57°
2026-04-30 18:28 10.47510 -83.99132 14827 ft 407 kts 57°
2026-04-30 18:28 10.50761 -83.94361 15534 ft 414 kts 57°
2026-04-30 18:29 10.52410 -83.91940 15863 ft 417 kts 57°
2026-04-30 18:29 9.99705 -84.20410 16787 ft 0 kts 339°
2026-04-30 18:50 9.99704 -84.20410 3042 ft 2 kts 339°
2026-04-30 18:50 9.99682 -84.20399 3042 ft 4 kts 320°
2026-04-30 18:50 9.99667 -84.20379 3044 ft 4 kts 281°
2026-04-30 18:50 9.99668 -84.20354 3043 ft 4 kts 245°
2026-04-30 18:51 9.99682 -84.20331 3043 ft 4 kts 232°
2026-04-30 18:51 9.99699 -84.20309 3042 ft 4 kts 236°
2026-04-30 18:51 9.99706 -84.20297 3043 ft 0 kts 249°
2026-04-30 18:54 9.99706 -84.20298 3044 ft 0 kts 249°
2026-04-30 18:54 9.99700 -84.20314 3042 ft 6 kts 250°
2026-04-30 18:54 9.99672 -84.20391 3044 ft 16 kts 249°
2026-04-30 18:54 9.99633 -84.20497 3043 ft 16 kts 249°
2026-04-30 18:55 9.99594 -84.20599 3044 ft 15 kts 249°
2026-04-30 18:55 9.99519 -84.20800 3043 ft 15 kts 249°
2026-04-30 18:55 9.99480 -84.20903 3042 ft 17 kts 249°
2026-04-30 18:56 9.99375 -84.21182 3012 ft 21 kts 249°
2026-04-30 18:56 9.99319 -84.21333 3004 ft 25 kts 249°
2026-04-30 18:56 9.99250 -84.21517 2989 ft 30 kts 249°
2026-04-30 18:57 9.99125 -84.21851 2971 ft 17 kts 249°
2026-04-30 18:57 9.99097 -84.21943 2967 ft 15 kts 263°
2026-04-30 18:57 9.99103 -84.22054 2954 ft 16 kts 267°
2026-04-30 18:58 9.99030 -84.22194 2944 ft 0 kts 191°
2026-04-30 18:59 9.99029 -84.22194 2944 ft 1 kts 191°
2026-04-30 19:00 9.98934 -84.22177 2956 ft 2 kts 160°
2026-04-30 19:00 9.98915 -84.22164 2945 ft 2 kts 102°
2026-04-30 19:00 9.98917 -84.22154 2951 ft 1 kts 73°
2026-04-30 19:01 9.99100 -84.21660 2984 ft 74 kts 69°
2026-04-30 19:01 9.99321 -84.21068 3017 ft 105 kts 69°
2026-04-30 19:02 10.00008 -84.19227 3094 ft 171 kts 75°
2026-04-30 19:02 10.00938 -84.17208 4052 ft 152 kts 29°
2026-04-30 19:03 10.02923 -84.17673 4381 ft 181 kts 304°
2026-04-30 19:03 10.04348 -84.19875 4742 ft 189 kts 310°
2026-04-30 19:04 10.05739 -84.22248 5014 ft 204 kts 294°
2026-04-30 19:04 10.06770 -84.25010 5219 ft 215 kts 291°
2026-04-30 19:05 10.07850 -84.27998 5546 ft 235 kts 292°
2026-04-30 19:05 10.09058 -84.31261 5960 ft 260 kts 293°
2026-04-30 19:06 10.10730 -84.34705 6456 ft 283 kts 298°
2026-04-30 19:06 10.11553 -84.36548 6877 ft 287 kts 296°
2026-04-30 19:06 10.13212 -84.40291 7867 ft 293 kts 297°
2026-04-30 19:07 10.16036 -84.43028 8786 ft 289 kts 353°
2026-04-30 19:07 10.18021 -84.42952 9154 ft 288 kts 21°
2026-04-30 19:08 10.20985 -84.40405 9979 ft 285 kts 64°
2026-04-30 19:08 10.22911 -84.36760 10531 ft 307 kts 63°
2026-04-30 19:08 10.23983 -84.34805 10773 ft 318 kts 62°
2026-04-30 19:09 10.26249 -84.30790 11173 ft 341 kts 62°
2026-04-30 19:09 10.27459 -84.28665 11368 ft 353 kts 61°
2026-04-30 19:09 10.28804 -84.26528 11570 ft 365 kts 57°
2026-04-30 19:10 10.31782 -84.22159 12013 ft 385 kts 57°
2026-04-30 19:10 10.34874 -84.17648 12918 ft 391 kts 57°
2026-04-30 19:11 10.36432 -84.15367 13364 ft 394 kts 57°
2026-04-30 19:11 10.39593 -84.10738 14144 ft 402 kts 57°
2026-04-30 19:11 10.41190 -84.08399 14515 ft 405 kts 57°
2026-04-30 19:12 10.42801 -84.06034 14897 ft 408 kts 57°
2026-04-30 19:12 10.44425 -84.03656 15305 ft 410 kts 57°
2026-04-30 19:12 10.46055 -84.01263 15712 ft 412 kts 57°
2026-04-30 19:13 10.49349 -83.96428 16408 ft 419 kts 57°
2026-04-30 19:13 10.52697 -83.91516 17076 ft 426 kts 57°
2026-04-30 19:13 10.54389 -83.89025 17392 ft 430 kts 56°
2026-04-30 19:14 10.56098 -83.86518 17757 ft 432 kts 56°
2026-04-30 19:14 10.57814 -83.83998 18079 ft 434 kts 56°
2026-04-30 19:14 10.59543 -83.81462 18380 ft 437 kts 56°
2026-04-30 19:14 10.61278 -83.78914 18664 ft 440 kts 56°
2026-04-30 19:15 10.63025 -83.76347 18961 ft 442 kts 56°
2026-04-30 19:15 10.66541 -83.71179 19546 ft 446 kts 56°
2026-04-30 19:15 10.68315 -83.68570 19844 ft 448 kts 56°
2026-04-30 19:16 10.70092 -83.65957 20153 ft 450 kts 56°
2026-04-30 19:16 10.71879 -83.63327 20447 ft 452 kts 56°
2026-04-30 19:16 10.75677 -83.58180 21039 ft 457 kts 50°
2026-04-30 19:17 10.77806 -83.55764 21328 ft 459 kts 46°
2026-04-30 19:17 10.82338 -83.51148 21923 ft 462 kts 44°
2026-04-30 19:17 10.84630 -83.48844 22207 ft 464 kts 44°
2026-04-30 19:18 10.87686 -83.45768 22563 ft 467 kts 44°
2026-04-30 19:18 10.91570 -83.41849 23007 ft 471 kts 44°
2026-04-30 19:18 10.93901 -83.39493 23270 ft 473 kts 44°
2026-04-30 19:19 10.96241 -83.37126 23516 ft 475 kts 44°
2026-04-30 19:19 10.98590 -83.34749 23736 ft 477 kts 44°
2026-04-30 19:19 11.03321 -83.29959 24150 ft 481 kts 44°
2026-04-30 19:20 11.05665 -83.27585 24368 ft 483 kts 44°
2026-04-30 19:20 11.08050 -83.25168 24577 ft 485 kts 44°
2026-04-30 19:20 11.12852 -83.20300 25003 ft 488 kts 44°
2026-04-30 19:21 11.14480 -83.18650 25141 ft 490 kts 44°
2026-04-30 19:21 11.20154 -83.12892 25616 ft 494 kts 44°
2026-04-30 19:22 11.25048 -83.07928 26024 ft 498 kts 44°
2026-04-30 19:22 11.32459 -83.00401 26618 ft 504 kts 44°
2026-04-30 19:23 11.39944 -82.92792 27196 ft 509 kts 44°
2026-04-30 19:24 11.44980 -82.87670 27578 ft 513 kts 44°
2026-04-30 19:24 11.46651 -82.85970 27705 ft 514 kts 44°
2026-04-30 19:24 11.51735 -82.80796 28071 ft 517 kts 44°
2026-04-30 19:25 11.59415 -82.72975 28580 ft 523 kts 44°
2026-04-30 19:26 11.64566 -82.67690 28870 ft 527 kts 45°
2026-04-30 19:26 11.69744 -82.62339 29216 ft 531 kts 45°
2026-04-30 19:26 11.72342 -82.59654 29381 ft 532 kts 45°
2026-04-30 19:27 11.77566 -82.54256 29709 ft 535 kts 45°
2026-04-30 19:27 11.82817 -82.48828 30057 ft 537 kts 45°
2026-04-30 19:28 11.85441 -82.46115 30263 ft 537 kts 45°
2026-04-30 19:28 11.90677 -82.40697 30761 ft 534 kts 45°
2026-04-30 19:29 11.95883 -82.35308 31241 ft 532 kts 45°
2026-04-30 19:29 11.98485 -82.32615 31429 ft 532 kts 45°
2026-04-30 19:30 12.06284 -82.24536 32084 ft 530 kts 45°
2026-04-30 19:30 12.11457 -82.19174 32529 ft 529 kts 45°
2026-04-30 19:31 12.16622 -82.13817 32930 ft 528 kts 45°
2026-04-30 19:31 12.19195 -82.11148 33159 ft 527 kts 45°
2026-04-30 19:31 12.24335 -82.05813 33608 ft 525 kts 45°
2026-04-30 19:32 12.26891 -82.03158 33833 ft 524 kts 45°
2026-04-30 19:32 12.29449 -82.00501 34012 ft 524 kts 44°
2026-04-30 19:32 12.31976 -81.97872 34190 ft 523 kts 44°
2026-04-30 19:32 12.34565 -81.95181 34350 ft 523 kts 44°
2026-04-30 19:33 12.37080 -81.92567 34526 ft 523 kts 44°
2026-04-30 19:33 12.39629 -81.89917 34699 ft 522 kts 44°
2026-04-30 19:33 12.42208 -81.87235 34866 ft 522 kts 44°
2026-04-30 19:33 12.44723 -81.84618 35040 ft 521 kts 44°
2026-04-30 19:34 12.47263 -81.81975 35204 ft 521 kts 44°
2026-04-30 19:34 12.49807 -81.79326 35346 ft 520 kts 44°
2026-04-30 19:34 12.54880 -81.74041 35660 ft 520 kts 44°
2026-04-30 19:35 12.57386 -81.71379 35806 ft 520 kts 46°
2026-04-30 19:35 12.59767 -81.68588 35938 ft 520 kts 50°
2026-04-30 19:35 12.62033 -81.65709 36076 ft 519 kts 51°
2026-04-30 19:35 12.64282 -81.62799 36223 ft 519 kts 51°
2026-04-30 19:36 12.66522 -81.59890 36306 ft 521 kts 51°
2026-04-30 19:36 12.73294 -81.51123 36570 ft 523 kts 51°
2026-04-30 19:37 12.75556 -81.48199 36695 ft 523 kts 51°
2026-04-30 19:37 12.77811 -81.45287 36832 ft 522 kts 51°
2026-04-30 19:37 12.80073 -81.42364 36952 ft 522 kts 51°
2026-04-30 19:37 12.82331 -81.39445 37047 ft 522 kts 51°
2026-04-30 19:38 12.84583 -81.36532 37157 ft 522 kts 51°
2026-04-30 19:38 12.86837 -81.33616 37257 ft 522 kts 51°
2026-04-30 19:38 12.89093 -81.30697 37362 ft 521 kts 51°
2026-04-30 19:38 12.91348 -81.27779 37431 ft 521 kts 51°
2026-04-30 19:39 12.93600 -81.24864 37541 ft 521 kts 51°
2026-04-30 19:39 12.95850 -81.21951 37648 ft 520 kts 51°
2026-04-30 19:39 13.00351 -81.16116 37776 ft 521 kts 51°
2026-04-30 19:40 13.04833 -81.10306 37766 ft 524 kts 51°
2026-04-30 19:40 13.09366 -81.04425 37841 ft 525 kts 51°
2026-04-30 19:41 13.13892 -80.98548 37842 ft 525 kts 51°
2026-04-30 19:41 13.18422 -80.92663 37841 ft 525 kts 51°
2026-04-30 19:42 13.22951 -80.86773 37843 ft 525 kts 51°
2026-04-30 19:42 13.27482 -80.80880 37842 ft 525 kts 51°
2026-04-30 19:43 13.32008 -80.74989 37842 ft 525 kts 51°
2026-04-30 19:44 13.38809 -80.66130 37842 ft 526 kts 51°
2026-04-30 19:44 13.43345 -80.60215 37840 ft 526 kts 51°
2026-04-30 19:45 13.47874 -80.54305 37842 ft 526 kts 51°
2026-04-30 19:45 13.52409 -80.48380 37837 ft 527 kts 51°
2026-04-30 19:46 13.56951 -80.42447 37843 ft 528 kts 51°
2026-04-30 19:46 13.61492 -80.36510 37841 ft 528 kts 51°
2026-04-30 19:47 13.66031 -80.30572 37840 ft 528 kts 51°
2026-04-30 19:47 13.70568 -80.24631 37838 ft 528 kts 51°
2026-04-30 19:48 13.75103 -80.18689 37846 ft 528 kts 51°
2026-04-30 19:48 13.79639 -80.12740 37843 ft 528 kts 51°
2026-04-30 19:49 13.84178 -80.06785 37840 ft 529 kts 51°
2026-04-30 19:49 13.90989 -79.97840 37842 ft 529 kts 51°
2026-04-30 19:50 13.95528 -79.91874 37843 ft 528 kts 51°
2026-04-30 19:50 14.00061 -79.85912 37845 ft 528 kts 51°
2026-04-30 19:51 14.04560 -79.79987 37844 ft 527 kts 51°
2026-04-30 19:51 14.09088 -79.74024 37842 ft 528 kts 51°
2026-04-30 19:52 14.13618 -79.68053 37842 ft 528 kts 51°
2026-04-30 19:52 14.18148 -79.62077 37844 ft 528 kts 51°
2026-04-30 19:53 14.22672 -79.56104 37846 ft 528 kts 51°
2026-04-30 19:53 14.27202 -79.50120 37849 ft 528 kts 51°
2026-04-30 19:54 14.31725 -79.44141 37849 ft 528 kts 51°
2026-04-30 19:54 14.36249 -79.38153 37851 ft 529 kts 51°
2026-04-30 19:55 14.40778 -79.32157 37848 ft 530 kts 51°
2026-04-30 19:55 14.45308 -79.26155 37852 ft 529 kts 51°
2026-04-30 19:56 14.49835 -79.20153 37849 ft 529 kts 51°
2026-04-30 19:56 14.54359 -79.14150 37849 ft 529 kts 51°
2026-04-30 19:57 14.58882 -79.08144 37848 ft 529 kts 51°
2026-04-30 19:57 14.63407 -79.02128 37849 ft 530 kts 51°
2026-04-30 19:58 14.67931 -78.96113 37858 ft 530 kts 51°
2026-04-30 19:58 14.72453 -78.90095 37854 ft 529 kts 51°
2026-04-30 19:59 14.76965 -78.84085 37850 ft 529 kts 51°
2026-04-30 20:00 14.83735 -78.75059 37852 ft 529 kts 51°
2026-04-30 20:00 14.88248 -78.69037 37855 ft 529 kts 51°
2026-04-30 20:01 14.95017 -78.59995 37856 ft 530 kts 51°
2026-04-30 20:01 14.99513 -78.54007 37852 ft 530 kts 49°
2026-04-30 20:02 15.06789 -78.45412 37857 ft 528 kts 46°
2026-04-30 20:03 15.14140 -78.36910 37856 ft 528 kts 46°
2026-04-30 20:03 15.19032 -78.31228 37854 ft 528 kts 46°
2026-04-30 20:04 15.23922 -78.25541 37857 ft 528 kts 46°
2026-04-30 20:05 15.31246 -78.17011 37857 ft 528 kts 46°
2026-04-30 20:05 15.38561 -78.08480 37860 ft 527 kts 46°
2026-04-30 20:06 15.43438 -78.02791 37858 ft 527 kts 46°
2026-04-30 20:06 15.48307 -77.97106 37863 ft 527 kts 46°
2026-04-30 20:07 15.53180 -77.91412 37852 ft 528 kts 46°
2026-04-30 20:08 15.60490 -77.82860 37855 ft 528 kts 46°
2026-04-30 20:08 15.65364 -77.77153 37867 ft 528 kts 46°
2026-04-30 20:09 15.70229 -77.71447 37867 ft 527 kts 46°
2026-04-30 20:09 15.77518 -77.62901 37858 ft 527 kts 46°
2026-04-30 20:10 15.84806 -77.54343 37864 ft 527 kts 46°
2026-04-30 20:11 15.92071 -77.45801 37865 ft 528 kts 46°
2026-04-30 20:11 15.96931 -77.40080 37862 ft 528 kts 46°
2026-04-30 20:12 16.03418 -77.32433 37865 ft 526 kts 46°
2026-04-30 20:13 16.08263 -77.26723 37868 ft 526 kts 46°
2026-04-30 20:13 16.13106 -77.21010 37860 ft 527 kts 46°
2026-04-30 20:14 16.17957 -77.15282 37869 ft 527 kts 46°
2026-04-30 20:14 16.22777 -77.09586 37867 ft 527 kts 46°
2026-04-30 20:15 16.27628 -77.03848 37863 ft 527 kts 46°
2026-04-30 20:15 16.32469 -76.98115 37877 ft 525 kts 46°
2026-04-30 20:16 16.37287 -76.92406 37873 ft 524 kts 46°
2026-04-30 20:16 16.42098 -76.86704 37867 ft 524 kts 46°
2026-04-30 20:17 16.46917 -76.80984 37865 ft 526 kts 46°
2026-04-30 20:17 16.51743 -76.75254 37871 ft 526 kts 46°
2026-04-30 20:18 16.56697 -76.69365 37871 ft 526 kts 46°
2026-04-30 20:18 16.61518 -76.63630 37895 ft 526 kts 46°
2026-04-30 20:19 16.66319 -76.57911 37875 ft 521 kts 46°
2026-04-30 20:19 16.71098 -76.52211 37874 ft 521 kts 46°
2026-04-30 20:20 16.75877 -76.46506 37876 ft 522 kts 46°
2026-04-30 20:20 16.80662 -76.40790 37876 ft 523 kts 46°
2026-04-30 20:21 16.85459 -76.35067 37876 ft 523 kts 46°
2026-04-30 20:21 16.90257 -76.29353 37879 ft 523 kts 46°
2026-04-30 20:22 16.95047 -76.23630 37887 ft 521 kts 46°
2026-04-30 20:22 16.99807 -76.17925 37881 ft 520 kts 46°
2026-04-30 20:23 17.04565 -76.12220 37876 ft 520 kts 46°
2026-04-30 20:23 17.09322 -76.06514 37877 ft 521 kts 46°
2026-04-30 20:24 17.14055 -76.00831 37880 ft 521 kts 46°
2026-04-30 20:24 17.18848 -75.95072 37883 ft 521 kts 46°
2026-04-30 20:25 17.25982 -75.86488 37898 ft 520 kts 46°
2026-04-30 20:26 17.33082 -75.77935 37878 ft 518 kts 46°
2026-04-30 20:26 17.40180 -75.69372 37885 ft 519 kts 46°
2026-04-30 20:27 17.49640 -75.57943 37886 ft 519 kts 46°
2026-04-30 20:28 17.59100 -75.46493 37887 ft 519 kts 46°
2026-04-30 20:30 17.70916 -75.32164 37890 ft 519 kts 46°
2026-04-30 20:31 17.85087 -75.14937 37897 ft 519 kts 46°
2026-04-30 20:32 17.96810 -75.00650 37886 ft 517 kts 46°
2026-04-30 20:33 18.03853 -74.92052 37893 ft 517 kts 46°
2026-04-30 20:34 18.10891 -74.83449 37899 ft 517 kts 46°
2026-04-30 20:35 18.17928 -74.74836 37906 ft 516 kts 46°
2026-04-30 20:35 18.24957 -74.66267 37885 ft 514 kts 44°
2026-04-30 20:36 18.29918 -74.60854 37899 ft 513 kts 42°